User: anonymous
Location: Caltech
(34.1382°N, 118.1253°W)
Time: 19:04:30
(UTC-07:00)
Language:

Iridium 94 - Orbit

View from above orbital plane
View from above orbital plane
View from above satellite
View from above satellite

Ground track
Ground track

The orbit data is extracted from the following two-line orbital elements,

1 27374U 02005C   14263.24182753  .00000343  00000-0  11549-3 0  6583
2 27374 086.3955 314.1289 0004769 101.5789 323.9894 14.34220928672486
Epoch (UTC): 20 September 2014 05:48:13
Eccentricity: 0.0004769
inclination: 86.3955°
perigee height: 774 km
apogee height: 781 km
right ascension of ascending node: 314.1289°
argument of perigee: 101.5789°
revolutions per day: 14.34220928
mean anomaly at epoch: 323.9894°
orbit number at epoch: 67248

The dashed part of the orbit path shows where the satellite is in the earth's shadow,  

DLR